Omaha, IA

7:14 PM CDT on September 21, 2017 (GMT -0500)
Eppley Airfield

Weather History for KOMA - December, 2013

Change the Weather History Date:

Saturday, December 28, 2013

  Actual Average Record
Temperature  
Mean Temperature 37 °F 24 °F  
Max Temperature 58 °F 33 °F 65 °F (1984)
Min Temperature 16 °F 14 °F -14 °F (1924)
Degree Days  
Heating Degree Days 28 41  
Month to date heating degree days 1173 1085  
Since 1 July heating degree days 2399 2355  
Cooling Degree Days 0 0  
Month to date cooling degree days 0 0  
Year to date cooling degree days 1294 1113  
Moisture  
Dew Point 23 °F    
Average Humidity 55    
Maximum Humidity 85    
Minimum Humidity 25    
Precipitation  
Precipitation T in 0.03 in 0.60 in (1972)
Month to date precipitation 0.20 0.97  
Year to date precipitation 29.00 30.55  
Snow  
Snow T in 0.20 in - ()
Month to date snowfall 3.1 5.6  
Since 1 July snowfall 3.5 8.4  
Snow Depth 0.00 in    
Sea Level Pressure  
Sea Level Pressure 29.95 in    
Wind  
Wind Speed 15 mph (South)    
Max Wind Speed 39 mph    
Max Gust Speed 49 mph    
Visibility 10 miles    
Events Snow    
T = Trace of Precipitation, MM = Missing Value Source: NWS Daily Summary

Daily Weather History Graph

Daily Weather History Graph

Search for Another Location

Airport or City:

Trip Planner

Search our weather history database for the weather conditions in past years. The results will help you decide how hot, cold, wet, or windy it might be!

Date:

Astronomy

Dec. 28, 2013 Rise Set
Actual Time 7:48 AM CST 5:01 PM CST
Civil Twilight 7:17 AM CST 5:33 PM CST
Nautical Twilight 6:42 AM CST 6:08 PM CST
Astronomical Twilight 6:09 AM CST 6:41 PM CST
Moon 3:25 AM CST (12/28) 1:54 PM CST (12/28)
Length of Visible Light 10h 15m
Length of Day
9h 13m
Waning Crescent, 19% of the Moon is Illuminated
Dec 28
Waning Crescent
Jan 1
New
Jan 7
First Quarter
Jan 15
Full
Jan 23
Last Quarter

Hourly Weather History & Observations

Time (CST) Temp. Windchill Dew Point Humidity Pressure Visibility Wind Dir Wind Speed Gust Speed Precip Events Conditions
12:52 AM 30.0 °F 21.1 °F 24.1 °F 79% 30.08 in 10.0 mi SSE 10.4 mph - N/A   Clear
1:52 AM 30.9 °F 21.7 °F 25.0 °F 79% 30.05 in 10.0 mi SE 11.5 mph - N/A   Clear
2:52 AM 28.9 °F 19.8 °F 24.1 °F 82% 30.04 in 10.0 mi SSE 10.4 mph - N/A   Clear
3:52 AM 28.9 °F 19.2 °F 24.1 °F 82% 30.01 in 10.0 mi SE 11.5 mph - N/A   Clear
4:52 AM 28.0 °F 18.6 °F 24.1 °F 85% 29.99 in 10.0 mi SSE 10.4 mph - N/A   Clear
5:52 AM 28.0 °F 18.6 °F 24.1 °F 85% 29.99 in 10.0 mi SSE 10.4 mph - N/A   Clear
6:52 AM 28.9 °F 19.2 °F 24.1 °F 82% 29.98 in 10.0 mi SSE 11.5 mph - N/A   Clear
7:52 AM 28.9 °F 20.4 °F 25.0 °F 85% 29.97 in 10.0 mi SSE 9.2 mph - N/A   Clear
8:52 AM 33.1 °F 24.9 °F 27.0 °F 78% 29.96 in 10.0 mi SSE 10.4 mph - N/A   Partly Cloudy
9:52 AM 37.9 °F 30.5 °F 28.0 °F 68% 29.94 in 10.0 mi SSE 11.5 mph - N/A   Partly Cloudy
10:52 AM 44.1 °F 39.0 °F 28.9 °F 55% 29.92 in 10.0 mi South 9.2 mph - N/A   Partly Cloudy
11:52 AM 52.0 °F - 28.0 °F 40% 29.87 in 10.0 mi South 12.7 mph - N/A   Partly Cloudy
12:52 PM 57.0 °F - 25.0 °F 29% 29.82 in 10.0 mi South 12.7 mph - N/A   Partly Cloudy
1:52 PM 57.9 °F - 25.0 °F 28% 29.78 in 10.0 mi SSW 15.0 mph 21.9 mph N/A   Partly Cloudy
2:52 PM 57.9 °F - 23.0 °F 26% 29.76 in 10.0 mi South 18.4 mph 24.2 mph N/A   Partly Cloudy
3:52 PM 55.9 °F - 25.0 °F 30% 29.78 in 10.0 mi South 12.7 mph - N/A   Partly Cloudy
4:52 PM 53.1 °F - 25.0 °F 34% 29.80 in 10.0 mi South 11.5 mph - N/A   Partly Cloudy
5:52 PM 46.9 °F - 25.0 °F 42% 29.83 in 10.0 mi SSW 6.9 mph - N/A   Partly Cloudy
6:28 PM 45.0 °F 36.0 °F 28.9 °F 53% 29.86 in 10.0 mi NW 25.3 mph 36.8 mph N/A   Partly Cloudy
6:52 PM 42.1 °F 32.8 °F 28.0 °F 58% 29.91 in 10.0 mi NNW 21.9 mph 39.1 mph N/A   Partly Cloudy
7:52 PM 37.0 °F 25.4 °F 26.1 °F 65% 29.97 in 10.0 mi NNW 25.3 mph 32.2 mph N/A   Scattered Clouds
8:24 PM 33.1 °F 19.3 °F 23.0 °F 66% 29.99 in 10.0 mi North 28.8 mph 35.7 mph N/A   Overcast
8:52 PM 30.0 °F 15.2 °F 21.0 °F 69% 30.05 in 10.0 mi North 28.8 mph 39.1 mph N/A   Overcast
9:52 PM 25.0 °F 9.9 °F 16.0 °F 69% 30.09 in 10.0 mi NNW 23.0 mph 40.3 mph N/A   Overcast
10:52 PM 19.9 °F 1.5 °F 10.0 °F 65% 30.14 in 10.0 mi NNW 28.8 mph 42.6 mph N/A   Overcast
11:52 PM 16.0 °F -3.2 °F 7.0 °F 68% 30.18 in 10.0 mi NW 26.5 mph 34.5 mph 0.00 in Snow Light Snow